Castres

France     43˚36′24″N   2˚14′12″E
temp.,
°C
wind,
m/s
gust,
m/s
humid.,
%
clouds,
%
prec.,
mm/h
press.,
hPa
HPBL,
m
1 december, tue
tue101:00+3˚w129412 0.0 102532
04:00+2˚wnw228988 0.0 102447
07:00+1˚wnw237594 0.0 1024103
10:00+3˚wnw4766100 0.0 1023357
13:00+4˚wnw41063100 0.0 1020505
16:00+4˚nw51284100 0.4 1019640
19:00+4˚nw5994100 0.5 1019626
22:00+3˚nw379798 0.1 1018418
2 december, wed
wed201:00+1˚wnw369983 0.1 1018240
04:00+1˚wnw599785 0.0 1017434
07:00+2˚wnw6119892 1.2 1017585
10:00+1˚wnw61198100 1.4 1016575
13:00+1˚wnw51098100 4.0 1016566
16:00+2˚wnw61294100 0.6 1015780
19:00+2˚wnw61197100 1.1 1017761
22:00+2˚wnw71297100 0.5 1018763
3 december, thu
thu301:00+2˚wnw61294100 0.8 1017737
04:00+2˚wnw61194100 0.1 1016771
07:00+2˚wnw41094100 0.2 1014574
10:00+2˚wnw3787100 0.1 1012336
13:00+6˚wnw257486 0.1 1009608
16:00+6˚ese1176100 0.0 1005321
19:00+4˚sse2382100 0.0 100359
22:00+4˚sse2391100 2.1 100093
4 december, fri
fri401:00+4˚ese2293100 3.0 99675
04:00+4˚ese229499 0.0 99245
07:00+2˚se339396 0.0 98960
10:00+3˚wsw61294100 0.9 990763
13:00+5˚w81373100 1.3 9891474
16:00+4˚wnw7127995 0.9 9901266
19:00+1˚nw499397 1.8 993549
22:00wnw4109532 0.0 995406
5 december, sat
sat501:00w5109740 0.1 995476
04:00wnw3109754 0.1 997490
07:00+1˚w499577 0.4 998605
10:00+2˚w5994100 0.4 999655
13:00+3˚wnw5887100 1.4 999845
16:00+4˚w598789 1.6 999931
19:00+2˚wsw4119295 2.8 1001795
22:00+3˚w7129299 0.8 1002986